SCP
0 0 0 0 0 0 0 0 0 0 0 0 0 0 0 0 0 0 0 0 0 0 0 0 0 0 0 0 0 0 0 0 0 0 0 0 0 0 0 0 0 0 0
0 0 0 0 0 0 0 0 0 0 0 0 0 0 0 0 0 0 0 0 0 0 0 0 0 0 0 0 0 0 0 0 0 0 0 0 0 0 0 0 0 0 0
0 0 0 0 0 0 0 0 0 0 0 0 0 0 0 0 0 0 0 0 0 0 0 0 0 0 0 0 0 0 0 0 0 0 0 0 0 0 0 0 0 0 0
0 0 0 0 0 0 0 0 0 0 0 0 0 0 0 0 0 0 0 0 0 0 0 0 0 0 0 0 0 0 0 0 0 0 0 0 0 0 0 0 0 0 0
0 0 0 0 0 0 0 0 0 0 0 0 0 0 0 0 0 0 0 0 0 0 0 0 0 0 0 0 0 0 0 0 0 0 0 0 0 0 0 0 0 0 0
0 0 0 0 0 0 0 0 0 0 0 0 0 0 0 0 0 0 0 0 0 0 0 0 0 0 0 0 0 0 0 0 0 0 0 0 0 0 0 0 0 0 0
0 0 0 0 0 0 0 0 0 0 0 0 0 0 0 0 0 0 0 0 0 0 0 0 0 0 0 0 0 0 0 0 0 0 0 0 0 0 0 0 0 0 0
0 0 0 0 0 0 0 0 0 0 0 0 0 0 0 0 0 0 0 0 0 0 0 0 0 0 0 0 0 0 0 0 0 0 0 0 0 0 0 0 0 0 0
0 0 0 0 0 0 0 0 0 0 0 0 0 0 0 0 0 0 0 0 0 0 0 0 0 0 0 0 0 0 0 0 0 0 0 0 0 0 0 0 0 0 0
0 0 0 0 0 0 0 0 0 0 0 0 0 0 0 0 0 0 0 0 0 0 0 0 0 0 0 0 0 0 0 0 0 0 0 0 0 0 0 0 0 0 0
0 0 0 0 0 0 0 0 0 0 0 0 0 0 0 0 0 0 0 0 0 0 0 0 0 0 0 0 0 0 0 0 0 0 0 0 0 0 0 0 0 0 0
0 0 0 0 0 0 0 0 0 0 0 0 0 0 0 0 0 0 0 0 0 0 0 0 0 0 0 0 0 0 0 0 0 0 0 0 0 0 0 0 0 0 0
0 0 0 0 0 0 0 0 0 0 0 0 0 0 0 0 0 0 0 0 0 0 0 0 0 0 0 0 0 0 0 0 0 0 0 0 0 0 0 0 0 0 0
0 0 0 0 0 0 0 0 0 0 0 0 0 0 0 0 0 0 0 0 0 0 0 0 0 0 0 0 0 0 0 0 0 0 0 0 0 0 0 0 0 0 0
0 0 0 0 0 0 0 0 0 0 0 0 0 0 0 0 0 0 0 0 0 0 0 0 0 0 0 0 0 0 0 0 0 0 0 0 0 0 0 0 0 0 0
0 0 0 0 0 0 0 0 0 0 0 0 0 0 0 0 0 0 0 0 0 0 0 0 0 0 0 0 0 0 0 0 0 0 0 0 0 0 0 0 0 0 0
0 0 0 0 0 0 0 0 0 0 0 0 0 0 0 0 0 0 0 0 0 0 0 0 0 0 0 0 0 0 0 0 0 0 0 0 0 0 0 0 0 0 0
0 0 0 0 0 0 0 0 0 0 0 0 0 0 0 0 0 0 0 0 0 0 0 0 0 0 0 0 0 0 0 0 0 0 0 0 0 0 0 0 0 0 0
0 0 0 0 0 0 0 0 0 0 0 0 0 0 0 0 0 0 0 0 0 0 0 0 0 0 0 0 0 0 0 0 0 0 0 0 0 0 0 0 0 0 0
0 0 0 0 0 0 0 0 0 0 0 0 0 0 0 0 0 0 0 0 0 0 0 0 0 0 0 0 0 0 0 0 0 0 0 0 0 0 0 0 0 0 0
0 0 0 0 0 0 0 0 0 0 0 0 0 0 0 0 0 0 0 0 0 0 0 0 0 0 0 0 0 0 0 0 0 0 0 0 0 0 0 0 0 0 0
0 0 0 0 0 0 0 0 0 0 0 0 0 0 0 0 0 0 0 0 0 0 0 0 0 0 0 0 0 0 0 0 0 0 0 0 0 0 0 0 0 0 0
0 0 0 0 0 0 0 0 0 0 0 0 0 0 0 0 0 0 0 0 0 0 0 0 0 0 0 0 0 0 0 0 0 0 0 0 0 0 0 0 0 0 0
0 0 0 0 0 0 0 0 0 0 0 0 0 0 0 0 0 0 0 0 0 0 0 0 0 0 0 0 0 0 0 0 0 0 0 0 0 0 0 0 0 0 0
0 0 0 0 0 0 0 0 0 0 0 0 0 0 0 0 0 0 0 0 0 0 0 0 0 0 0 0 0 0 0 0 0 0 0 0 0 0 0 0 0 0 0
0 0 0 0 0 0 0 0 0 0 0 0 0 0 0 0 0 0 0 0 0 0 0 0 0 0 0 0 0 0 0 0 0 0 0 0 0 0 0 0 0 0 0
Wind_Speed
10 10 10 9 9 9 8 8 7 6 6 7 7 7 7 7 6 6 5 5 4 4 3 3 4 4 3 3 3 3 4 5 9 9 7 8 10 12 12 12 11 11 11
10 11 11 10 10 10 10 8 8 8 7 7 7 8 7 7 6 6 5 5 4 4 4 4 5 4 5 5 4 5 6 6 7 11 9 9 10 12 12 13 11 10 10
10 11 11 10 10 10 9 8 8 8 7 7 7 7 7 6 5 5 4 4 4 4 4 5 6 6 6 6 6 6 6 7 7 8 10 8 8 9 10 11 12 10 11
10 11 11 10 9 9 9 8 8 7 7 7 7 6 5 5 4 4 4 4 4 5 5 6 6 7 7 8 7 7 7 8 8 8 9 9 9 9 8 8 9 8 9
10 11 10 8 8 8 8 7 7 7 7 6 6 5 4 3 3 3 3 4 5 7 7 7 7 10 11 8 7 8 8 7 7 7 8 8 8 7 7 6 8 8 10
10 9 8 8 8 7 7 7 6 6 5 5 4 4 3 3 5 6 6 4 6 7 8 8 9 9 10 12 14 14 13 10 9 8 7 9 9 9 8 7 8 8 6
8 8 7 7 7 6 6 6 6 5 4 4 4 4 3 4 6 8 10 6 6 7 7 8 7 8 10 8 11 14 13 14 13 9 9 9 10 9 8 8 7 8 8
7 6 6 6 6 6 6 5 4 3 3 3 3 3 3 5 8 9 11 7 7 7 8 8 8 9 8 9 9 10 10 9 10 8 8 9 9 8 8 7 8 8 8
6 5 5 5 5 5 5 4 3 3 3 3 3 3 3 5 8 10 10 6 7 9 8 8 8 8 10 12 9 9 10 9 9 10 11 11 11 11 8 6 6 6 6
5 4 4 4 4 4 4 3 3 3 3 3 4 4 4 5 8 10 10 5 7 8 8 8 9 9 12 12 8 8 9 9 10 10 9 8 7 7 7 5 5 5 5
4 4 4 4 4 4 3 3 3 3 4 4 4 4 5 6 8 11 12 6 6 7 7 7 7 12 13 12 9 6 9 10 8 8 7 6 5 5 5 4 4 4 5
3 4 3 3 3 3 4 3 4 4 4 4 4 5 5 6 7 10 13 11 9 6 6 6 7 12 13 12 8 9 12 9 5 5 5 5 4 5 5 5 5 5 4
3 3 3 3 3 3 3 3 2 3 2 3 3 4 6 6 6 10 12 13 14 7 6 10 11 11 10 8 9 11 9 5 5 5 6 5 4 5 5 5 5 5 4
2 2 1 2 2 2 2 1 1 1 1 2 3 5 6 6 7 8 8 8 10 8 7 8 10 9 8 7 7 7 5 5 5 5 5 5 5 5 4 4 4 5 4
2 1 1 1 1 1 1 0 0 1 2 1 2 3 5 6 8 12 8 7 7 7 7 4 5 6 7 7 7 6 6 6 6 5 5 5 5 5 5 5 5 5 5
1 0 0 0 0 0 1 2 2 2 3 3 4 4 4 6 10 12 12 11 11 11 5 4 5 6 6 6 7 6 6 6 6 5 5 5 5 6 6 5 5 6 6
2 1 1 0 0 0 1 1 3 4 5 5 6 8 7 9 9 11 12 11 8 8 4 5 5 6 6 6 6 6 6 6 5 4 4 5 5 5 6 6 6 6 6
2 1 2 1 1 1 1 1 1 2 3 4 5 7 9 10 9 10 11 8 5 6 5 5 5 6 6 6 6 6 6 6 5 5 4 4 4 5 5 6 6 7 7
2 1 1 1 1 1 1 1 1 2 2 3 4 5 8 9 7 8 7 5 4 5 5 5 5 6 6 6 6 6 6 6 6 5 5 4 4 4 5 6 6 8 8
1 3 3 2 2 2 2 2 1 2 3 3 4 4 6 5 4 5 5 4 4 5 5 6 6 6 6 6 7 7 6 6 7 6 5 4 4 4 5 7 7 7 7
1 2 4 3 2 2 2 1 1 2 3 3 4 5 7 4 4 5 5 5 5 5 5 6 6 6 6 6 6 7 7 6 6 6 5 5 4 4 4 5 6 6 7
2 2 2 2 2 2 2 1 1 2 3 4 4 5 7 4 4 4 5 5 5 5 5 5 5 5 5 6 6 6 6 6 6 6 5 5 4 4 4 4 5 6 6
3 4 3 3 2 3 2 2 1 2 3 4 4 4 5 5 5 5 5 5 5 5 5 5 5 5 6 5 5 5 5 5 5 5 4 4 4 4 4 5 6 6 7
4 4 3 3 2 2 2 2 1 2 2 3 4 4 5 5 5 6 6 6 6 5 6 5 6 8 11 8 6 5 5 5 5 3 3 2 3 4 4 5 5 6 6
3 3 3 3 2 2 2 2 2 2 2 3 4 4 5 5 6 6 6 6 7 7 8 7 6 8 11 11 10 8 9 8 5 3 1 2 4 4 4 4 4 4 4
4 4 3 2 2 2 2 2 2 2 2 3 4 4 5 5 6 6 6 7 7 7 8 7 10 11 12 9 11 11 10 8 7 5 2 3 4 4 4 3 4 3 3
Wind_Direction
75 79 80 79 82 84 83 83 87 87 89 89 87 83 79 76 77 77 71 64 57 34 15 358 333 317 311 307 294 282 270 264 282 291 281 283 282 284 289 289 286 282 279
78 79 78 77 78 79 79 77 80 79 77 83 86 86 84 79 74 72 60 47 34 13 354 340 329 325 314 303 296 289 282 271 274 292 296 292 285 285 286 286 286 282 279
75 78 77 75 76 76 75 74 75 77 77 81 84 85 82 77 70 63 55 37 14 349 333 323 314 312 305 300 295 287 282 281 272 283 293 292 289 288 288 285 284 281 281
76 76 74 73 75 76 75 74 74 77 79 78 80 80 76 70 61 48 36 15 351 335 324 313 307 300 291 291 290 286 287 287 285 284 289 293 293 292 286 288 293 290 289
81 79 78 76 75 75 74 73 73 74 78 81 82 79 71 65 51 38 14 354 340 331 324 318 310 306 308 308 307 304 301 293 291 291 293 296 297 301 299 291 293 297 291
83 81 80 79 78 76 75 73 73 72 71 72 68 61 47 37 17 13 5 344 332 324 319 318 314 309 315 318 314 311 308 303 301 295 295 297 299 300 299 298 298 301 297
79 78 76 78 74 68 74 72 69 65 64 59 48 42 29 1 5 2 355 346 326 315 311 311 312 311 315 308 309 311 308 302 298 296 296 299 300 303 302 301 300 302 297
78 76 76 78 76 70 67 65 60 57 55 44 34 26 16 3 5 358 349 341 321 314 309 304 302 306 310 315 312 309 307 303 298 293 286 290 293 297 298 297 296 296 288
75 74 75 79 78 70 63 55 47 54 47 34 29 21 10 351 353 352 352 333 324 321 316 312 310 309 311 317 317 312 311 311 310 300 293 291 292 294 298 300 304 307 308
70 74 74 76 78 73 64 55 45 53 46 36 29 18 7 347 341 345 347 332 326 324 321 319 318 317 317 319 317 309 311 314 317 319 317 314 310 308 311 305 309 311 313
66 73 72 71 80 79 69 58 59 59 48 33 19 0 354 343 337 339 344 339 324 318 317 321 319 321 321 322 319 305 301 306 308 311 314 316 321 322 321 317 310 306 308
74 78 74 66 74 88 83 67 57 54 45 24 6 354 345 339 336 336 338 337 331 316 312 313 314 319 322 323 323 318 318 318 318 324 328 328 329 332 331 325 317 310 298
81 76 74 72 66 79 89 80 58 47 40 12 0 349 339 337 336 337 338 336 337 333 316 317 322 327 330 329 328 329 332 335 336 341 343 339 333 332 335 334 332 327 318
108 91 84 83 66 60 69 82 78 40 20 1 352 344 337 336 341 344 338 334 335 338 331 326 328 335 342 335 334 340 344 343 343 346 345 341 343 351 355 351 345 346 350
131 128 106 94 83 44 26 304 252 246 238 292 318 319 326 330 329 328 330 330 331 328 325 332 350 349 350 348 347 349 351 355 359 359 0 1 0 3 5 2 3 5 13
144 150 113 115 87 37 0 347 331 315 318 311 312 315 303 304 319 331 338 338 342 344 352 352 349 348 345 345 345 347 351 359 0 3 7 10 9 11 13 14 17 21 23
178 189 172 158 144 42 19 2 349 354 6 10 354 350 346 339 342 344 344 341 350 0 9 354 349 345 342 344 347 348 351 350 352 358 6 9 13 18 21 20 20 23 26
179 184 166 164 142 96 63 38 19 358 347 340 337 337 344 347 347 349 349 354 1 6 360 351 347 342 342 346 348 349 348 349 352 355 0 7 13 21 26 25 25 26 27
185 174 153 133 115 101 89 73 41 13 351 338 336 339 342 341 341 352 360 7 354 351 351 349 344 342 342 345 346 348 348 348 352 354 359 4 17 27 33 33 36 32 35
197 178 152 135 115 104 91 78 45 15 357 348 346 344 340 344 353 353 357 354 353 350 347 344 341 341 342 344 345 347 349 353 356 0 360 4 19 35 42 45 44 43 44
156 143 136 124 115 115 103 84 51 15 356 347 341 344 354 348 349 349 351 351 350 346 343 340 339 342 344 344 345 347 349 351 356 357 359 3 19 40 49 53 50 51 53
128 122 116 115 113 110 104 88 55 19 358 353 348 351 358 3 356 353 353 350 347 343 341 338 338 341 340 339 339 340 342 345 350 353 355 2 25 49 59 61 58 56 57
111 111 103 96 99 102 95 82 56 30 12 2 2 4 4 3 1 0 356 351 348 350 349 350 346 345 342 335 331 328 327 328 325 325 337 2 35 55 65 68 69 69 65
103 107 106 99 92 90 89 80 62 44 27 16 12 13 9 4 2 2 358 353 353 353 353 353 350 346 347 344 335 329 325 317 309 305 324 17 49 62 70 74 76 81 80
95 99 99 97 96 95 92 83 71 53 36 24 17 12 6 5 4 2 358 355 354 356 357 357 353 349 347 346 346 342 334 332 334 331 357 57 68 70 74 77 80 85 83
92 94 92 91 92 96 99 92 75 61 45 33 22 15 10 6 4 1 359 358 355 354 355 355 353 354 353 350 346 342 342 351 1 12 38 66 67 68 75 76 80 78 79